Weather History for KFOD - August, 2012

Change the Weather History Date:

Sunday, August 26, 2012

  Actual Average Record
Temperature  
Mean Temperature 72 °F -  
Max Temperature 84 °F - - ()
Min Temperature 60 °F - - ()
Cooling Degree Days 7    
Growing Degree Days 22 (Base 50)    
Moisture  
Dew Point 64 °F    
Average Humidity 81    
Maximum Humidity 100    
Minimum Humidity 51    
Precipitation  
Precipitation 0.00 in - - ()
Sea Level Pressure  
Sea Level Pressure 30.00 in    
Wind  
Wind Speed 1 mph (North)    
Max Wind Speed 7 mph    
Max Gust Speed -    
Visibility 6 miles    
Events      
T = Trace of Precipitation, MM = Missing Value Source: NWS Daily Summary

Daily Weather History Graph

Daily Weather History Graph

Search for Another Location

Airport or City:

Trip Planner

Search our weather history database for the weather conditions in past years. The results will help you decide how hot, cold, wet, or windy it might be!

Date:

Astronomy

Aug. 26, 2012 Rise Set
Actual Time 6:35 AM CDT 8:00 PM CDT
Civil Twilight 6:06 AM CDT 8:29 PM CDT
Nautical Twilight 5:31 AM CDT 9:04 PM CDT
Astronomical Twilight 4:53 AM CDT 9:42 PM CDT
Moon 4:34 PM CDT (8/26) 1:13 AM CDT (8/26)
Length of Visible Light 14h 22m
Length of Day
13h 24m
Waxing Gibbous, 73% of the Moon is Illuminated
Aug 26
Waxing Gibbous
Aug 31
Full
Sep 8
Last Quarter
Sep 15
New
Sep 22
First Quarter

Hourly Weather History & Observations

Time (CDT) Temp. Heat Index Dew Point Humidity Pressure Visibility Wind Dir Wind Speed Gust Speed Precip Events Conditions
12:15 AM 66.2 °F - 64.4 °F 94% 29.96 in 3.0 mi Calm Calm - N/A   Overcast
12:55 AM 66.2 °F - 64.4 °F 94% 29.95 in 3.0 mi Calm Calm - N/A   Mostly Cloudy
1:15 AM 64.4 °F - 64.4 °F 100% 29.95 in 2.0 mi Calm Calm - N/A   Scattered Clouds
1:35 AM 64.4 °F - 62.6 °F 94% 29.94 in 1.2 mi Calm Calm - N/A   Clear
1:55 AM 64.4 °F - 62.6 °F 94% 29.94 in 1.5 mi Calm Calm - N/A   Mostly Cloudy
2:15 AM 64.4 °F - 62.6 °F 94% 29.94 in 0.8 mi Calm Calm - N/A   Overcast
2:35 AM 62.6 °F - 60.8 °F 94% 29.94 in 0.2 mi Calm Calm - N/A   Overcast
2:55 AM 62.6 °F - 62.6 °F 100% 29.94 in 0.5 mi Calm Calm - N/A   Overcast
3:15 AM 62.6 °F - 62.6 °F 100% 29.94 in 1.0 mi Calm Calm - N/A   Mostly Cloudy
3:35 AM 62.6 °F - 62.6 °F 100% 29.94 in 0.5 mi Calm Calm - N/A   Overcast
3:55 AM 62.6 °F - 60.8 °F 94% 29.95 in 0.5 mi Calm Calm - N/A   Overcast
4:15 AM 62.6 °F - 60.8 °F 94% 29.95 in 0.5 mi Calm Calm - N/A   Overcast
4:35 AM 60.8 °F - 60.8 °F 100% 29.96 in 0.5 mi Calm Calm - N/A   Overcast
4:55 AM 62.6 °F - 60.8 °F 94% 29.96 in 0.2 mi NE 3.5 mph - N/A   Overcast
5:15 AM 60.8 °F - 60.8 °F 100% 29.97 in 0.2 mi Calm Calm - N/A   Overcast
5:35 AM 62.6 °F - 60.8 °F 94% 29.97 in 0.5 mi Calm Calm - N/A   Overcast
5:55 AM 60.8 °F - 60.8 °F 100% 29.98 in 0.2 mi Calm Calm - N/A   Overcast
6:15 AM 60.8 °F - 60.8 °F 100% 29.98 in 0.2 mi Calm Calm - N/A   Overcast
6:35 AM 60.8 °F - 60.8 °F 100% 29.98 in 0.2 mi North - - N/A   Overcast
6:55 AM 60.8 °F - 60.8 °F 100% 29.98 in 0.2 mi North 3.5 mph - N/A   Overcast
7:15 AM 60.8 °F - 59.0 °F 94% 29.99 in 0.2 mi Calm Calm - N/A   Overcast
7:35 AM 62.6 °F - 60.8 °F 94% 29.99 in 0.2 mi Calm Calm - N/A   Overcast
7:55 AM 62.6 °F - 60.8 °F 94% 29.99 in 0.2 mi Calm Calm - N/A   Overcast
8:15 AM 62.6 °F - 62.6 °F 100% 29.99 in 0.2 mi Calm Calm - N/A   Overcast
8:35 AM 64.4 °F - 62.6 °F 94% 30.00 in 0.2 mi Calm Calm - N/A   Overcast
8:55 AM 64.4 °F - 62.6 °F 94% 30.00 in 0.2 mi Calm Calm - N/A   Overcast
9:15 AM 66.2 °F - 64.4 °F 94% 30.00 in 1.5 mi Calm Calm - N/A   Overcast
9:35 AM 66.2 °F - 64.4 °F 94% 30.00 in 4.0 mi Calm Calm - N/A   Mostly Cloudy
9:55 AM 68.0 °F - 66.2 °F 94% 30.01 in 6.0 mi Calm Calm - N/A   Clear
10:15 AM 69.8 °F - 66.2 °F 88% 30.01 in 7.0 mi North 3.5 mph - N/A   Clear
10:35 AM 71.6 °F - 68.0 °F 88% 30.01 in 10.0 mi NE 3.5 mph - N/A   Clear
10:55 AM 73.4 °F - 68.0 °F 83% 30.02 in 10.0 mi NNW 3.5 mph - N/A   Clear
11:15 AM 75.2 °F - 69.8 °F 83% 30.02 in 10.0 mi North 3.5 mph - N/A   Mostly Cloudy
11:35 AM 75.2 °F - 69.8 °F 83% 30.01 in 10.0 mi NE 5.8 mph - N/A   Scattered Clouds
11:55 AM 78.8 °F - 69.8 °F 74% 30.01 in 10.0 mi ENE 5.8 mph - N/A   Mostly Cloudy
12:15 PM 80.6 °F 83.2 °F 68.0 °F 65% 30.01 in 10.0 mi North 3.5 mph - N/A   Mostly Cloudy
12:35 PM 80.6 °F 83.2 °F 68.0 °F 65% 30.01 in 10.0 mi ENE 4.6 mph - N/A   Mostly Cloudy
12:55 PM 78.8 °F - 66.2 °F 65% 30.01 in 10.0 mi North 3.5 mph - N/A   Mostly Cloudy
1:15 PM 82.4 °F 85.4 °F 68.0 °F 62% 30.01 in 10.0 mi NW 6.9 mph - N/A   Mostly Cloudy
1:35 PM 82.4 °F 85.4 °F 68.0 °F 62% 30.01 in 10.0 mi NE 3.5 mph - N/A   Mostly Cloudy
2:15 PM 82.4 °F 85.4 °F 68.0 °F 62% 30.00 in 10.0 mi Calm Calm - N/A   Partly Cloudy
2:35 PM 82.4 °F 84.6 °F 66.2 °F 58% 30.00 in 10.0 mi North 5.8 mph - N/A   Scattered Clouds
2:55 PM 82.4 °F 84.6 °F 66.2 °F 58% 30.00 in 10.0 mi North 3.5 mph - N/A   Partly Cloudy
3:15 PM 84.2 °F 87.3 °F 68.0 °F 58% 30.00 in 10.0 mi North 5.8 mph - N/A   Partly Cloudy
3:35 PM 84.2 °F 86.6 °F 66.2 °F 55% 30.00 in 10.0 mi Calm Calm - N/A   Scattered Clouds
4:15 PM 84.2 °F 86.6 °F 66.2 °F 55% 30.00 in 10.0 mi North 5.8 mph - N/A   Scattered Clouds
4:35 PM 84.2 °F 86.6 °F 66.2 °F 55% 30.00 in 10.0 mi North 6.9 mph - N/A   Clear
4:55 PM 84.2 °F 85.6 °F 64.4 °F 51% 30.00 in 10.0 mi North 5.8 mph - N/A   Clear
5:15 PM 84.2 °F 86.6 °F 66.2 °F 55% 30.00 in 10.0 mi NNE 5.8 mph - N/A   Partly Cloudy
5:35 PM 82.4 °F 83.9 °F 64.4 °F 54% 30.00 in 10.0 mi North 3.5 mph - N/A   Clear
5:55 PM 84.2 °F 85.6 °F 64.4 °F 51% 30.00 in 10.0 mi North 4.6 mph - N/A   Clear
6:15 PM 82.4 °F 83.9 °F 64.4 °F 54% 30.01 in 10.0 mi NNE 4.6 mph - N/A   Clear
6:35 PM 82.4 °F 83.9 °F 64.4 °F 54% 30.01 in 10.0 mi NNE 5.8 mph - N/A   Clear
6:55 PM 82.4 °F 83.9 °F 64.4 °F 54% 30.00 in 10.0 mi North 4.6 mph - N/A   Clear
7:15 PM 80.6 °F 82.3 °F 64.4 °F 58% 30.01 in 10.0 mi Calm Calm - N/A   Clear
7:35 PM 78.8 °F - 64.4 °F 61% 30.01 in 10.0 mi North 3.5 mph - N/A   Clear
7:55 PM 75.2 °F - 64.4 °F 69% 30.02 in 10.0 mi North 3.5 mph - N/A   Clear
8:15 PM 75.2 °F - 64.4 °F 69% 30.02 in 10.0 mi North 3.5 mph - N/A   Clear
8:35 PM 71.6 °F - 64.4 °F 78% 30.03 in 10.0 mi North 3.5 mph - N/A   Clear
8:55 PM 71.6 °F - 64.4 °F 78% 30.04 in 10.0 mi North 3.5 mph - N/A   Clear
9:15 PM 71.6 °F - 64.4 °F 78% 30.05 in 10.0 mi NNW 3.5 mph - N/A   Clear
9:35 PM 71.6 °F - 64.4 °F 78% 30.06 in 10.0 mi Calm Calm - N/A   Clear
9:55 PM 66.2 °F - 62.6 °F 88% 30.06 in 10.0 mi Calm Calm - N/A   Clear
10:15 PM 66.2 °F - 62.6 °F 88% 30.06 in 10.0 mi Calm Calm - N/A   Clear
10:35 PM 64.4 °F - 62.6 °F 94% 30.06 in 10.0 mi Calm Calm - N/A   Clear
10:55 PM 64.4 °F - 62.6 °F 94% 30.07 in 10.0 mi Calm Calm - N/A   Clear
11:55 PM 62.6 °F - 60.8 °F 94% 30.08 in 5.0 mi Calm Calm - N/A   Clear